Regional Weather Roundup
Issued by NWS

Home | Current Version | Previous Version | Graphics & Text | Print | Product List | Glossary On
Versions: 1 2 3 4 5 6 7 8 9 10 11 12 13 14 15 16 17 18 19 20 21 22 23 24 25 26 27
000
ASUS45 KBOU 040807
RWRCO

WEATHER ROUNDUP FOR COLORADO
NATIONAL WEATHER SERVICE DENVER/BOULDER CO
100 AM MST SUN DEC 04 2016

NOTE: "FAIR" INDICATES FEW OR NO CLOUDS BELOW 12000 FEET WITH NO
SIGNIFICANT WEATHER AND/OR OBSTRUCTIONS TO VISIBILITY.

COZ001>005-013-030-031-040900-
...NORTHWEST COLORADO...

CITY           SKY/WX    TMP DP  RH WIND       PRES   REMARKS
CRAIG          FAIR      15   9  76 CALM      30.19F
HAYDEN         MOCLDY    18  10  73 CALM      30.18S
MEEKER         FAIR       6   3  87 NE9       30.20F WCI  -8
MOUNT WERNER   NOT AVBL
STEAMBOAT SPGS CLOUDY    18  15  87 E5        30.16F WCI  11
WALDEN           N/A     16   9  73 S12       30.08F WCI   3
$$

COZ006>008-011-040900-
...WEST CENTRAL VALLEYS...

CITY           SKY/WX    TMP DP  RH WIND       PRES   REMARKS
GRAND JUNCTION FAIR      21  16  81 SE8       30.24F WCI  11
MONTROSE       FAIR      18  11  74 SE8       30.27R WCI   8
EAGLE          FAIR      10   6  84 E3        30.23S
RIFLE          FAIR      15  11  83 CALM      30.25S
DELTA          NOT AVBL
NUCLA          FAIR      19  12  73 E3        30.25S
$$

COZ017>023-064>068-040900-
...SOUTHWEST COLORADO...

CITY           SKY/WX    TMP DP  RH WIND       PRES   REMARKS
DURANGO        FAIR      19  16  88 CALM      30.11R
CORTEZ         FAIR      17  12  80 NE6       30.14S WCI   9
PAGOSA SPRINGS FAIR      16  15  96 CALM      30.10R
TELLURIDE      FAIR      11   7  81 SE6       30.16F WCI   2
WOLF CREEK PAS FAIR      16 -17  22 NW13G18   30.11R WCI   2
$$

COZ009-010-012-014-032>034-037-058>063-040900-
...CENTRAL COLORADO...

CITY           SKY/WX    TMP DP  RH WIND       PRES   REMARKS
ASPEN          FAIR       8   2  76 SW7       30.19R WCI  -3
BUENA VISTA    FAIR      17   3  55 NW13G18   30.08R WCI   3
COPPER MTN     FAIR       7   0  72 MISG      30.05R
BERTHOUD PASS  CLOUDY     0 -13  55 NW31G40   29.94R WCI -27
COTTONWOOD PAS FAIR      23 -13  20 SW12G21   30.03S WCI  12
GUNNISON       FAIR       7   2  80 CALM      30.21R
KREMMLING      FAIR      19  12  73 SW6       30.16F WCI  11
LEADVILLE      FAIR       0  -5  79 NE10      30.09R WCI -16
MONARCH PASS   CLOUDY     3   0  85 SW40G48   30.09F WCI -24
SALIDA         FAIR      17   6  60 N8        30.15F WCI   7
SUNLIGHT       FAIR     N/A N/A N/A SW9       30.15F
WILKERSON PASS FAIR       9  -2  61 NW10      30.01R WCI  -6
$$

COZ069>075-040900-
...SAN LUIS VALLEY/SANGRE DE CRISTO MOUNTAINS...

CITY           SKY/WX    TMP DP  RH WIND       PRES   REMARKS
ALAMOSA        FAIR      -1  -5  82 W6        30.11S WCI -13
LA VETA PASS   FAIR      10   7  85 NE23      30.01S WCI -10
SAGUACHE       FAIR      18   7  62 NW12      30.10F WCI   5
$$

COZ035-036-038>040-040900-
...NORTHERN COLORADO FRONT RANGE...

CITY           SKY/WX    TMP DP  RH WIND       PRES   REMARKS
DENVER INTL AP FAIR      23   8  52 SW8       30.03R WCI  14
DMNS CITY PARK   N/A     27   8  45 SE10      30.04S WCI  17
AURORA         CLEAR     20   9  60 S8        30.04R WCI  11
FRONT RANGE AP FAIR      27  10  50 SW9       30.04S WCI  17
ERIE MUNI ARPT FAIR      31   5  34 NW7       30.03S WCI  24
BOULDER MUN AP FAIR      34   5  29 W14G20    30.02F WCI  24
CENTENNIAL     FAIR      23   7  50 SW6       30.04R WCI  16
BROOMFIELD     FAIR      32   5  32 NW14G22   30.02S WCI  22
FORT COLLINS   FAIR      18   9  68 S3        30.03F
LONGMONT       FAIR      17   8  66 E5        30.05F WCI  10
$$

COZ041-046-047-076>085-087-088-040900-
...PIKES PEAK/PALMER DIVIDE AND SOUTHERN FOOTHILLS...

CITY           SKY/WX    TMP DP  RH WIND       PRES   REMARKS
COLO. SPRINGS  FAIR      26   8  46 CALM      30.05F
A. F. ACADEMY  FAIR      18   5  57 E6        30.03S WCI  10
SCHRIEVER AFB  NOT AVBL
ELLICOTT       FAIR     N/A N/A N/A N5        30.02F
FALCON         FAIR      22   4  47 NW9       30.04R WCI  11
FORT CARSON    FAIR      26   9  48 SW2       30.03F
LIMON          FAIR      13   8  81 CALM      30.05S
MONUMENT HILL  FAIR      18   5  57 SW8       30.03S WCI   7
TRINIDAD       FAIR      19  12  74 W12       30.06S WCI   7
$$

COZ042>045-048>051-090-091-040900-
...NORTHEAST COLORADO...

CITY           SKY/WX    TMP DP  RH WIND       PRES   REMARKS
GREELEY ARPT   FAIR      14   9  80 W3        30.05F
AKRON          FAIR      22  11  62 W10       30.03R WCI  11
BURLINGTON     FAIR      18  10  71 W10       30.04S WCI   6
WRAY           NOT AVBL
STERLING       FAIR      28  14  54 NW13      30.02S WCI  18
HOLYOKE        FAIR      25  18  74 W9        30.03R WCI  15
FORT MORGAN    FAIR      19  11  70 W7        30.04S WCI  10
$$

COZ086-089-092>099-040900-
...SOUTHEAST COLORADO...

CITY           SKY/WX    TMP DP  RH WIND       PRES   REMARKS
PUEBLO         FAIR      17  11  77 CALM      30.05F
LA JUNTA       FAIR      21  16  81 W13       30.07S WCI   9
LAMAR          MIX PCPN  19  15  84 SW7       30.06R WCI  10
SPRINGFIELD      N/A     21  20  96 NW10      30.04S WCI  10
$$




USA.gov is the U.S. government's official web portal to all federal, state and local government web resources and services.